Lapse_Rate
4.7 4.4 4.3 4.0 3.7 3.3 3.0 2.7 2.3 2.0 2.1 2.1 2.0 1.8 1.6 1.1 0.6 0.2 0.8 1.0 1.2 1.4 1.3 1.0 0.6 0.3 1.0 4.0 2.4 2.6 3.5 3.6 2.8 3.3 3.9 4.3 4.9 5.0 6.5 6.3 6.2 6.5 6.5 5.4 4.2 5.0 4.6
4.3 3.8 3.4 3.2 3.0 2.7 2.5 2.3 1.9 1.7 1.8 1.8 1.6 1.5 1.3 1.0 0.8 0.4 0.2 0.2 0.4 0.6 0.7 0.7 0.6 0.1 2.7 6.0 2.8 2.1 2.0 2.6 3.4 3.7 4.3 4.0 4.3 4.4 5.6 6.1 6.4 6.1 6.1 5.6 5.1 5.2 5.0
3.3 3.2 3.1 3.0 2.8 2.6 2.5 2.2 1.9 1.8 2.0 2.2 2.0 1.7 1.5 1.3 1.3 1.1 0.8 1.0 1.0 0.7 0.6 0.9 0.9 0.6 3.2 2.3 2.3 2.6 3.0 4.3 4.3 4.0 4.7 4.5 5.3 5.5 5.9 6.5 5.5 5.8 6.5 6.5 6.2 5.7 6.3
3.0 2.9 2.7 2.6 2.6 2.6 2.7 2.6 2.5 2.3 2.3 2.5 2.4 2.1 2.0 1.8 1.6 1.2 0.7 0.6 1.0 1.0 1.2 1.3 1.5 1.6 3.1 3.3 2.5 3.2 3.7 4.8 4.6 4.7 5.3 5.2 5.3 5.7 6.2 5.8 5.4 6.5 6.5 6.5 6.5 6.5 6.0
2.9 2.8 2.7 2.7 2.8 2.7 2.7 2.7 2.5 2.5 2.6 2.6 2.5 2.5 2.2 2.0 1.8 1.6 1.1 0.8 1.2 1.2 1.6 2.4 2.7 4.0 3.9 4.6 3.9 3.5 4.3 5.4 4.9 5.4 5.8 6.1 6.1 5.2 5.9 6.5 6.5 6.5 6.5 6.5 6.5 6.5 6.5
3.1 3.3 3.2 3.0 3.1 3.2 3.3 3.2 3.1 3.2 3.2 3.1 3.0 2.8 2.4 2.2 1.9 1.8 1.3 1.6 1.0 2.0 2.6 3.1 4.9 5.5 4.0 5.3 4.3 4.1 3.7 4.8 5.6 5.5 5.9 6.1 3.2 6.5 6.5 6.5 6.5 6.5 6.5 6.5 6.5 6.5 6.5
3.4 3.4 3.3 3.3 3.3 3.5 3.7 3.9 3.9 3.8 4.0 4.0 4.0 3.7 3.1 2.7 2.6 2.4 1.3 0.8 1.7 3.6 3.2 4.2 5.1 4.6 5.1 4.4 5.1 5.2 4.9 5.5 5.8 5.6 6.5 6.0 6.5 6.5 6.5 6.5 6.5 6.5 6.5 6.5 6.5 6.5 6.5
3.7 3.8 3.8 3.9 3.9 4.0 4.3 4.6 5.0 5.1 5.6 5.3 4.8 4.3 3.8 3.1 3.1 3.0 3.0 3.6 5.5 5.0 5.8 2.4 1.9 3.5 3.8 5.5 5.7 5.7 5.5 5.4 5.8 6.5 6.5 6.5 6.5 6.5 6.5 6.5 6.5 6.5 6.5 6.5 6.5 6.5 6.5
3.6 3.9 3.9 4.0 4.2 5.5 6.2 6.6 6.1 6.0 6.1 5.8 5.5 5.2 4.6 3.8 2.9 3.2 3.7 4.9 4.4 5.3 5.8 4.8 4.6 5.2 6.1 4.9 5.4 5.4 5.2 5.2 6.5 6.5 6.5 6.5 6.5 6.5 6.5 6.5 6.5 6.5 6.5 6.5 6.5 6.5 6.5
3.8 3.7 4.1 4.3 4.8 4.9 5.6 6.9 7.3 7.3 6.8 6.3 5.9 5.5 5.2 4.7 3.7 2.8 4.2 3.6 3.5 4.8 6.5 6.5 6.3 6.4 6.4 6.0 6.4 6.1 5.2 5.7 6.4 6.5 6.5 6.5 6.5 6.5 6.5 6.5 6.5 6.5 6.5 6.5 6.5 6.5 6.5
4.1 4.2 4.6 4.9 5.5 6.5 6.7 6.9 7.1 7.2 6.9 6.5 6.1 5.7 5.8 5.4 3.6 3.2 4.1 2.9 3.7 4.5 6.5 6.5 6.4 6.4 6.0 6.2 6.0 6.5 5.9 6.3 6.5 6.5 6.5 6.5 6.5 6.5 6.5 6.5 6.5 6.5 6.5 6.5 6.5 6.5 6.5
4.8 5.2 5.7 6.0 5.8 6.4 7.2 7.8 7.4 7.3 7.1 7.0 6.2 5.7 5.8 4.0 2.8 3.5 3.4 2.8 4.0 6.5 6.5 6.5 6.4 6.5 6.5 6.3 6.4 6.0 6.2 6.3 6.0 6.5 6.5 6.5 6.2 6.5 6.5 6.5 6.5 6.5 6.5 6.5 6.5 6.5 6.5
5.3 6.3 6.7 7.0 7.3 7.2 7.3 7.8 7.6 7.5 7.3 7.0 6.2 5.7 5.2 4.9 4.1 3.9 2.6 3.7 6.5 6.5 6.5 6.5 6.5 6.5 6.5 6.5 6.5 6.5 6.5 6.5 6.5 6.5 6.5 6.5 6.5 6.5 6.5 6.5 6.5 6.5 6.5 6.5 6.5 6.5 6.5
7.3 7.7 7.8 7.9 8.1 8.3 8.1 7.8 7.8 7.7 7.3 6.9 6.1 5.4 3.5 4.2 4.9 4.4 3.1 6.2 6.5 6.5 6.5 6.5 6.5 6.5 6.5 6.5 6.5 6.5 6.5 6.5 6.5 6.5 6.5 6.5 6.5 6.5 6.5 6.5 6.5 6.5 6.5 6.5 6.5 6.5 6.5
8.3 8.2 8.1 8.1 8.1 8.2 8.0 7.8 7.7 7.6 7.3 6.9 5.8 2.4 2.3 4.1 5.1 5.4 6.2 6.5 6.5 6.5 6.5 6.5 6.5 6.5 6.5 6.5 6.5 6.5 6.5 6.5 6.5 6.5 6.5 6.5 6.5 6.5 6.5 6.5 6.5 6.5 6.5 6.5 6.5 6.5 6.5
8.3 8.4 8.3 8.1 8.1 8.0 7.9 7.8 7.7 7.7 7.5 7.1 4.6 4.0 2.8 4.8 5.5 4.6 6.2 6.5 6.5 6.5 6.5 6.5 6.5 6.5 6.5 6.5 6.5 6.5 6.5 6.5 6.5 6.5 6.5 6.5 6.5 6.5 6.5 6.5 6.5 6.5 6.5 6.5 6.5 6.5 6.5
8.3 8.5 8.3 8.3 8.0 8.0 7.7 7.8 7.8 7.8 7.8 7.0 4.0 4.4 4.2 4.5 5.5 4.8 6.5 6.5 6.5 5.9 6.2 6.5 6.5 6.5 6.5 6.5 6.5 6.5 6.5 6.5 6.5 6.5 6.5 6.5 6.5 6.5 6.5 6.5 6.5 6.5 6.5 6.5 6.5 6.5 6.5
8.8 8.7 8.3 8.1 7.9 7.7 7.7 7.6 7.7 7.7 7.9 5.4 4.3 6.5 4.0 5.3 5.8 6.0 6.5 6.5 6.6 6.4 6.2 6.5 6.5 6.5 6.5 6.5 6.5 6.5 6.5 6.5 6.2 6.5 6.5 6.5 6.5 6.5 6.5 6.5 6.5 6.5 6.5 6.5 6.5 6.5 6.5
8.7 8.7 8.3 8.2 8.0 7.7 7.6 7.6 7.5 7.6 7.6 5.8 6.6 5.1 4.0 4.8 6.5 6.5 6.5 6.5 6.5 6.5 6.5 6.5 6.5 6.5 6.5 6.5 6.5 6.5 6.5 6.4 6.4 6.5 6.5 6.5 6.5 6.5 6.5 6.5 6.5 6.5 6.5 6.5 6.5 6.5 6.5
8.7 8.7 8.4 8.0 7.9 7.6 7.3 7.3 7.5 7.6 8.1 6.1 6.5 6.5 3.8 5.7 4.9 6.5 6.5 6.5 6.5 6.2 6.4 6.3 6.5 6.4 6.5 6.5 6.5 6.5 6.5 6.5 6.0 6.2 6.7 6.4 6.5 6.5 6.5 6.5 6.5 6.5 6.5 6.5 6.5 6.5 6.5
8.6 9.0 8.8 8.5 8.3 7.9 7.3 7.2 7.6 7.6 8.0 6.7 6.1 6.2 6.0 6.5 6.5 6.5 6.5 6.5 6.5 6.5 6.4 6.3 6.5 6.5 6.5 6.5 6.5 6.5 6.5 6.5 6.4 6.5 6.5 6.5 6.5 6.5 6.5 6.5 6.5 6.5 6.5 6.5 6.5 6.5 6.5
8.6 9.0 8.6 8.6 8.2 7.9 7.7 7.2 7.5 7.7 7.9 6.3 6.6 6.7 6.4 6.6 5.9 6.5 6.5 6.5 6.5 6.5 6.5 6.5 6.5 6.5 6.5 6.5 6.5 6.5 6.5 6.5 6.5 6.5 6.5 6.5 6.5 6.5 6.5 6.5 6.5 6.5 6.5 6.5 6.5 6.5 6.5
9.0 8.6 8.5 8.3 8.0 7.7 7.5 7.4 7.4 7.5 7.9 6.1 5.5 5.6 6.7 6.4 6.5 6.5 6.5 6.5 6.5 6.5 6.1 6.2 6.4 6.5 6.5 6.5 6.5 6.2 6.3 6.3 6.5 6.5 6.5 6.5 6.5 6.5 6.5 6.5 6.5 6.5 6.5 6.5 6.5 6.5 6.5
8.7 8.5 8.5 8.4 8.2 7.9 7.7 7.4 7.6 8.0 8.3 6.7 5.8 6.5 6.6 6.5 6.5 6.5 6.5 6.5 6.5 6.5 6.5 6.3 4.8 6.5 5.3 4.6 5.4 4.4 5.9 6.5 6.5 6.5 6.5 6.5 6.5 6.5 6.5 6.5 6.5 6.5 6.5 6.5 6.5 6.5 6.5
8.2 8.0 7.8 8.1 8.2 8.2 8.0 7.7 7.5 8.0 8.3 6.9 5.9 6.0 6.1 6.5 6.1 6.4 6.4 6.5 6.3 6.4 6.5 6.5 6.0 5.1 4.5 6.2 6.5 6.5 6.5 6.5 6.5 6.5 6.5 6.5 6.5 6.5 6.5 6.5 6.5 6.5 6.5 6.5 6.5 6.5 6.5
7.9 7.8 7.8 8.3 8.3 8.3 8.1 8.0 7.8 8.0 8.2 7.2 6.8 6.3 5.5 6.5 6.5 6.5 6.4 5.9 6.5 6.5 6.5 5.3 4.7 4.7 6.0 6.5 6.5 6.5 6.5 6.5 6.5 6.5 6.5 6.5 6.5 6.5 6.5 6.5 6.5 6.5 6.5 6.4 6.2 6.5 6.5
7.8 8.2 7.7 8.0 8.1 8.2 8.3 8.2 8.0 8.2 8.0 7.4 6.6 6.6 6.2 6.5 5.7 6.3 6.5 6.4 6.8 6.2 6.5 5.5 6.5 6.6 6.1 6.5 6.5 6.5 6.5 6.5 6.5 6.5 6.5 6.5 6.5 6.5 6.5 6.5 6.5 6.5 6.6 6.8 6.5 6.5 6.8
8.2 8.3 7.9 7.8 7.9 7.8 8.0 8.0 8.0 8.2 8.0 7.1 6.7 6.6 6.5 5.9 5.4 6.3 6.2 6.1 6.2 6.6 6.5 5.7 6.4 6.5 6.5 6.5 6.5 6.5 6.5 6.5 6.5 6.5 6.5 6.5 6.5 6.5 6.5 6.5 6.5 6.9 6.6 6.5 6.6 7.0 7.0
8.1 7.6 7.4 7.5 7.9 7.8 8.0 8.1 8.6 8.3 8.0 7.7 6.6 6.0 6.4 5.4 5.5 4.1 3.9 4.1 4.8 6.4 6.4 5.7 6.3 6.3 6.4 6.5 6.5 6.5 6.5 6.5 6.5 6.5 6.5 6.5 6.5 6.5 6.5 6.5 6.5 6.9 6.9 6.9 7.2 7.1 7.2
Wind_Speed
17 15 16 16 16 17 18 19 20 20 21 22 23 23 25 27 28 27 29 29 27 25 22 19 13 8 2 0 9 2 6 6 5 3 3 4 4 5 5 4 2 4 4 4 6 5 5
13 14 15 16 17 18 18 19 21 22 23 24 24 25 26 28 29 29 30 31 32 28 27 17 8 3 3 4 3 8 7 5 4 4 3 4 5 5 4 4 5 2 4 6 5 4 4
16 16 18 19 19 19 20 20 21 21 22 23 24 24 26 27 28 30 30 31 29 26 23 8 5 3 2 12 2 4 4 2 3 4 4 4 3 4 1 4 3 3 7 6 7 4 7
17 18 18 18 18 19 19 20 21 22 22 23 25 26 27 28 30 31 32 33 27 25 11 2 9 2 7 2 1 3 4 2 2 3 2 3 4 4 2 3 6 3 0 4 1 5 4
17 17 18 18 19 19 20 21 21 22 23 23 25 26 28 29 30 31 34 35 27 4 1 9 3 3 8 1 1 4 4 4 4 2 1 2 3 2 3 3 4 3 5 5 9 8 2
17 18 19 19 20 20 20 20 21 22 23 24 26 27 29 30 31 33 36 33 9 2 2 3 1 1 4 3 1 2 2 4 2 4 2 3 4 2 2 4 6 7 5 6 7 2 4
16 16 17 18 19 20 21 22 22 22 24 25 26 27 29 31 32 35 15 5 6 3 4 6 5 5 2 3 1 0 1 4 3 4 5 1 3 9 14 12 2 2 3 6 4 4 4
17 18 18 18 19 20 21 21 22 22 24 25 27 29 31 33 34 29 4 5 3 4 11 10 8 7 5 1 3 3 5 6 5 6 4 3 7 10 5 4 6 3 5 14 8 5 6
17 19 20 20 21 21 20 20 21 22 23 23 24 25 29 32 35 5 4 3 6 1 4 6 5 3 2 6 6 5 8 4 4 6 7 8 5 5 6 4 5 4 6 7 11 5 5
18 18 19 20 21 21 22 23 23 23 23 23 25 25 27 32 5 5 2 7 10 1 3 6 2 2 2 2 2 2 6 4 3 7 6 6 4 8 5 7 9 5 8 13 6 3 4
17 18 19 19 21 22 21 22 22 24 23 21 24 26 24 20 4 3 5 13 5 2 6 0 1 2 1 3 3 3 2 2 6 6 5 7 5 6 5 7 8 9 5 5 4 4 3
18 18 19 20 21 22 23 22 21 23 24 23 23 26 27 5 3 4 13 8 2 4 7 1 0 1 1 2 2 1 2 2 1 3 3 8 2 4 7 5 8 3 3 3 4 3 4
17 18 19 19 20 20 22 22 20 23 25 25 24 25 18 5 4 8 8 3 4 3 6 5 4 5 5 3 2 3 3 3 5 1 4 2 4 3 2 1 3 3 5 3 3 0 7
18 18 19 20 20 21 22 22 19 22 25 25 24 24 7 4 11 8 2 3 4 3 3 3 4 4 4 3 1 1 1 3 3 2 2 3 5 4 2 4 4 5 7 5 6 3 3
20 19 20 20 20 20 19 20 20 22 23 25 21 4 4 2 7 2 0 1 6 5 1 5 6 2 4 1 1 1 4 3 2 6 7 3 5 3 1 2 0 2 3 1 1 1 1
21 22 22 20 21 21 19 20 20 21 22 25 4 4 4 6 4 2 2 5 4 3 2 2 1 1 3 4 4 4 2 2 1 1 1 1 4 2 3 0 1 4 3 1 2 3 5
23 22 23 22 21 20 20 19 18 19 21 20 3 4 3 10 2 2 4 6 4 5 3 5 3 4 4 3 2 2 4 3 2 2 2 1 3 3 3 2 4 1 2 1 2 4 6
24 25 25 23 22 20 19 18 16 15 17 6 2 3 3 3 2 2 2 4 4 4 1 3 3 6 5 3 5 5 7 9 2 2 3 2 2 5 8 6 3 2 3 3 5 3 1
25 26 27 25 22 22 20 20 17 14 9 2 2 3 2 2 4 4 3 4 3 3 3 3 3 6 3 3 4 5 2 2 3 2 4 4 1 3 5 3 4 3 2 3 2 1 6
26 27 27 25 23 23 23 23 19 15 11 2 3 4 3 1 2 4 4 7 6 3 5 4 4 4 3 4 6 5 4 4 5 6 4 3 5 7 8 3 1 6 5 2 4 5 7
27 27 27 27 26 25 25 25 19 17 13 3 3 4 2 3 3 6 2 4 3 3 3 1 4 4 4 6 5 8 4 4 3 4 3 4 5 6 7 8 4 11 12 11 10 11 9
28 28 29 28 27 27 25 24 19 18 16 4 3 3 2 2 2 5 7 7 16 15 7 6 5 8 7 5 5 2 4 2 3 3 6 4 3 5 7 9 10 13 14 12 11 10 8
29 29 30 29 29 29 27 26 25 19 15 3 3 3 3 6 4 4 5 8 12 8 9 14 12 6 11 11 10 10 8 9 7 4 4 4 3 3 8 2 2 5 6 2 4 5 2
29 30 30 30 28 28 27 27 25 23 19 4 4 2 4 6 7 10 6 8 14 14 16 10 3 7 5 2 3 3 7 11 9 13 11 6 4 3 3 1 4 1 3 3 10 7 5
32 32 31 29 27 27 27 26 27 23 22 7 3 4 3 4 6 6 12 10 10 13 11 10 11 4 4 2 3 5 4 5 5 9 9 11 8 4 3 4 2 3 2 3 2 3 3
32 32 31 28 26 26 25 25 28 26 20 10 6 5 3 2 8 13 5 5 6 8 8 5 0 2 4 3 3 3 4 4 5 4 2 5 9 5 2 3 6 3 2 5 2 2 6
29 28 27 24 26 23 24 25 24 25 22 7 4 8 4 3 2 3 4 3 2 3 7 1 3 4 3 3 3 5 5 2 4 3 4 2 2 11 9 5 2 3 9 3 4 2 9
25 26 25 24 23 22 22 22 23 23 23 6 4 10 6 2 4 7 8 7 4 4 8 2 1 2 2 4 3 2 3 5 2 2 4 5 3 2 2 3 4 14 2 0 3 4 7
22 22 21 20 18 18 21 22 22 22 22 11 7 6 8 3 2 1 3 5 5 8 5 5 3 3 2 1 2 1 2 2 4 4 6 2 3 2 4 3 3 8 10 5 6 7 7
Wind_Direction
29 21 15 13 9 6 3 0 358 355 353 352 351 347 344 341 338 332 329 327 324 320 315 309 293 287 286 200 246 198 136 115 102 100 130 140 150 163 203 207 246 221 271 238 256 257 241
18 15 13 10 7 4 1 360 357 354 352 350 349 344 342 339 337 331 327 325 323 322 318 310 282 232 160 252 202 169 148 133 140 141 157 152 195 203 237 230 175 233 252 268 275 244 238
18 13 9 5 3 2 358 356 354 352 349 346 343 342 339 336 332 328 324 320 317 314 313 297 206 209 177 236 76 153 144 182 163 156 168 195 191 173 178 286 286 291 311 309 228 220 228
9 7 5 2 0 359 356 354 352 350 347 345 342 340 337 334 331 327 321 317 314 308 299 204 163 180 241 268 100 168 165 174 162 176 183 184 162 180 194 274 347 337 12 309 330 139 251
5 4 2 359 357 355 353 352 350 349 347 345 343 341 338 334 330 327 320 312 313 304 145 143 134 175 264 96 191 221 160 170 151 139 143 104 111 155 61 104 350 348 249 228 308 206 114
7 4 1 359 356 353 351 350 348 347 347 346 345 343 339 336 332 328 323 308 287 89 138 228 278 10 268 278 218 143 182 141 144 124 78 103 57 104 44 120 230 230 228 247 243 215 206
357 356 354 353 352 351 350 347 346 346 346 345 344 342 338 335 332 328 334 350 10 355 23 234 217 247 290 306 147 131 142 109 87 76 185 205 129 219 208 206 161 188 216 260 266 234 250
350 348 345 343 344 344 344 345 344 342 342 342 342 341 339 336 331 327 351 59 52 261 301 260 267 270 261 190 322 204 132 157 155 197 130 46 234 246 230 216 246 279 290 275 282 256 199
347 345 345 345 345 340 335 335 335 335 337 337 339 340 338 335 326 28 356 47 325 246 280 300 234 237 213 139 204 235 154 150 173 166 187 183 202 92 163 194 215 226 224 255 253 313 252
343 344 343 342 340 338 337 336 334 329 329 332 335 340 340 340 36 331 356 323 334 168 335 278 274 259 159 143 239 194 190 154 194 200 183 227 251 219 185 226 169 251 224 249 259 34 251
340 340 340 342 341 338 336 334 332 330 329 327 328 332 336 337 272 323 299 326 328 50 343 351 247 317 337 200 118 244 221 130 196 189 141 244 193 191 186 209 157 219 165 175 187 198 343
339 337 335 335 336 333 335 337 340 337 330 327 324 326 332 336 296 259 322 319 59 46 254 306 28 308 285 210 230 124 201 44 60 184 232 244 283 221 212 198 189 110 130 76 62 119 266
330 330 330 330 332 333 333 334 338 334 333 333 324 323 324 286 262 317 324 21 40 161 348 347 338 7 337 280 271 189 189 197 198 149 242 298 224 267 161 186 180 153 86 315 298 177 234
318 320 322 326 328 330 335 334 339 337 336 335 328 321 300 233 283 315 35 64 194 240 269 338 336 304 234 15 265 314 290 264 209 69 105 218 306 180 175 215 198 184 167 177 232 212 254
312 310 312 316 318 321 329 332 336 337 336 338 333 320 315 268 319 308 321 158 218 213 279 357 317 310 302 261 313 347 218 224 201 177 190 184 263 287 294 329 139 157 194 184 274 145 62
315 316 312 307 312 312 316 322 329 332 335 337 326 323 279 312 336 63 162 246 262 244 354 52 222 300 288 312 345 21 274 242 135 88 249 203 286 283 297 39 212 175 177 86 32 282 247
311 312 311 310 305 308 309 310 320 329 334 337 17 339 263 327 137 62 217 230 270 247 209 201 216 263 241 275 233 253 262 290 234 172 25 107 184 282 349 193 194 263 244 222 183 204 256
313 312 308 304 307 303 303 301 306 316 332 37 353 307 296 346 345 203 229 223 316 284 355 275 218 230 227 241 268 237 233 209 217 160 186 197 176 250 227 245 38 0 298 217 227 254 280
311 309 308 304 302 301 297 297 288 297 320 339 260 252 313 92 232 236 260 267 265 268 254 256 254 209 197 239 253 218 285 8 13 194 183 184 235 331 318 24 13 109 113 101 120 213 238
308 305 304 305 302 303 299 290 286 284 288 128 296 298 301 219 203 212 265 268 254 253 255 258 262 256 280 261 239 264 233 246 195 205 174 83 203 196 240 221 86 285 253 191 178 264 277
307 306 304 302 304 304 301 294 284 273 266 183 197 250 211 288 255 259 261 331 301 301 290 298 303 228 269 281 233 230 260 293 259 289 316 196 218 204 247 256 258 261 262 264 251 247 253
307 306 306 307 305 302 301 292 289 277 265 222 225 240 198 254 290 253 229 233 260 264 225 245 227 253 223 228 277 279 330 250 303 269 187 184 258 194 267 235 227 254 266 255 247 262 269
304 302 302 301 300 297 299 293 288 282 262 229 211 255 227 239 212 222 230 236 240 233 236 238 250 236 250 240 235 256 248 252 236 216 229 201 224 201 258 209 81 305 251 172 101 67 52
302 300 301 300 300 300 300 297 291 282 270 221 203 224 223 242 222 244 237 244 259 253 254 266 226 227 229 71 331 301 268 253 246 241 235 237 212 234 242 110 226 48 40 75 100 88 31
296 296 296 298 302 305 300 299 303 297 285 249 202 207 221 250 233 239 250 252 256 250 260 263 253 249 139 141 248 268 311 343 256 240 230 225 237 245 223 187 109 194 44 64 126 132 11
299 298 297 300 299 298 299 295 295 300 298 287 254 217 195 241 225 229 234 225 260 279 283 223 237 225 185 223 191 234 227 212 289 343 210 200 231 232 174 235 220 64 15 11 15 273 11
307 305 301 297 294 295 297 302 299 296 298 276 270 227 233 262 208 138 195 243 199 286 291 261 172 209 199 195 219 233 242 185 231 197 186 196 207 222 224 233 105 323 309 293 136 240 329
317 312 310 301 302 300 310 306 301 301 301 281 271 221 234 234 201 211 192 208 228 222 265 257 237 183 179 216 229 224 203 217 164 221 194 171 202 202 152 208 223 343 81 24 349 326 325
327 326 322 316 312 309 308 304 306 300 303 286 275 198 219 212 264 283 351 6 300 251 242 188 234 184 197 163 208 227 254 182 190 224 20 108 348 64 27 90 61 51 68 22 7 351 346